Location: Vienna
(48.2082°N, 16.3738°E)
Time: 02:26:56
(UTC+01:00)

ISS - Pass Details

Date: 23 November 2019
Orbit: 411 x 421 km, 51.6° (Epoch: 12 December)

Event Time Altitude Azimuth Distance (km) Brightness Sun altitude
Rises 19:13:40 0° 249° (WSW) 2,354 1.0 -30.4°
Reaches altitude 10° 19:15:45 10° 250° (WSW) 1,494 -0.2 -30.7°
Enters shadow 19:16:01 12° 250° (WSW) 1,391 -0.4 -30.8°
